FW3958 Weather Reports


time (UTC)temp
C
wind
direction
speed
KPH
gust
KPH
rain 1hr
cm
rain 24hr
cm
rain mn
cm
humidity
%
barometer
mb
20260902060032 13 174 0.0 0.0 0.00 0.00 0.00 93 1012.3
20260902054535 14 174 0.0 1.6 0.00 0.00 0.00 91 1012.4
20260902053027 15 174 0.0 3.2 0.00 0.00 0.00 91 1012.5
20260902051529 15 136 0.0 3.2 0.00 0.00 0.00 90 1012.4
20260902050031 15 176 0.0 4.8 0.00 0.00 0.00 91 1012.5
20260902044529 15 178 1.6 4.8 0.00 0.00 0.00 92 1012.8
20260902043021 15 178 0.0 3.2 0.00 0.00 0.00 91 1012.6
20260902041531 15 178 0.0 1.6 0.00 0.00 0.00 91 1012.7
20260902040020 15 178 0.0 0.0 0.00 0.00 0.00 90 1012.8
20260902034520 15 178 0.0 1.6 0.00 0.00 0.00 89 1012.8
20260902033020 16 177 1.6 6.4 0.00 0.00 0.00 89 1012.9
20260902031518 15 209 3.2 11.3 0.00 0.00 0.00 89 1012.8
20260902030022 16 199 4.8 12.9 0.00 0.00 0.00 89 1012.7
20260902024516 16 183 6.4 16.1 0.00 0.00 0.00 89 1012.8
20260902023019 16 205 6.4 19.3 0.00 0.00 0.00 88 1012.8
20260902021518 16 226 12.9 19.3 0.00 0.00 0.00 88 1013.0
20260902020015 16 214 8.0 17.7 0.00 0.00 0.00 87 1013.2
20260902014522 17 198 8.0 17.7 0.00 0.00 0.00 87 1013.1
20260902013015 17 205 11.3 24.1 0.00 0.00 0.00 86 1013.2
20260902011547 17 212 8.0 24.1 0.00 0.00 0.00 86 1013.2
20260902010022 18 215 8.0 20.9 0.00 0.00 0.00 85 1013.1
20260902004516 18 220 12.9 24.1 0.00 0.00 0.00 84 1013.0
20260902003010 18 251 12.9 25.7 0.00 0.00 0.00 85 1013.1
20260902001512 18 213 12.9 20.9 0.00 0.00 0.00 84 1013.0
20260902000015 18 174 12.9 20.9 0.00 0.00 0.00 84 1013.0
20260901234509 18 261 8.0 22.5 0.00 0.00 0.00 84 1013.0
20260901233010 19 195 12.9 22.5 0.00 0.00 0.00 80 1013.0
20260901231508 20 189 12.9 27.4 0.00 0.00 0.00 77 1013.2
20260901230011 20 211 17.7 29.0 0.00 0.00 0.00 76 1013.2
20260901224506 20 203 8.0 32.2 0.00 0.00 0.00 77 1013.2
20260901223014 20 205 17.7 32.2 0.00 0.00 0.00 77 1013.3
20260901221502 19 222 3.2 25.7 0.00 0.00 0.00 79 1013.1
20260901220001 19 201 11.3 27.4 0.00 0.00 0.00 81 1013.1
20260901214501 18 219 14.5 24.1 0.00 0.00 0.00 82 1013.1
20260901213108 18 197 17.7 29.0 0.00 0.00 0.00 83 1013.1
20260901211600 18 197 16.1 27.4 0.00 0.00 0.00 83 1013.2
20260901210059 19 199 8.0 24.1 0.00 0.00 0.00 83 1013.2
20260901204559 18 255 11.3 27.4 0.00 0.00 0.00 82 1013.2
20260901203104 19 214 11.3 25.7 0.00 0.00 0.00 82 1013.2
20260901201556 18 222 11.3 24.1 0.00 0.00 0.00 84 1013.1
20260901200106 18 294 4.8 20.9 0.00 0.00 0.00 85 1013.2
20260901194603 18 268 11.3 25.7 0.00 0.00 0.00 84 1013.4
20260901193101 18 202 6.4 19.3 0.00 0.00 0.00 88 1013.5
20260901191553 18 219 9.7 20.9 0.00 0.00 0.00 87 1013.5
20260901184552 18 194 9.7 22.5 0.00 0.00 0.00 85 1013.7
20260901183051 18 262 6.4 19.3 0.00 0.00 0.00 86 1013.6
20260901181549 18 198 1.6 16.1 0.00 0.00 0.00 87 1013.5
20260901180046 18 216 8.0 22.5 0.00 0.00 0.00 87 1013.5
20260901174556 18 243 4.8 20.9 0.00 0.00 0.00 88 1013.5
20260901173039 17 199 8.0 17.7 0.00 0.00 0.00 91 1013.4
20260901171539 17 212 9.7 16.1 0.00 0.00 0.00 91 1013.4
20260901170112 17 206 9.7 19.3 0.00 0.00 0.00 90 1013.4
20260901164537 17 204 4.8 9.7 0.00 0.00 0.00 91 1013.3
20260901163034 17 225 0.0 3.2 0.00 0.00 0.00 93 1013.2
20260901161531 16 176 3.2 9.7 0.00 0.00 0.00 93 1013.3
20260901160034 16 171 1.6 4.8 0.00 0.00 0.00 96 1013.3
20260901154525 15 178 0.0 4.8 0.00 0.00 0.00 97 1013.4
20260901153023 15 178 1.6 4.8 0.00 0.00 0.00 97 1013.3
20260901151523 15 176 1.6 6.4 0.00 0.00 0.00 98 1013.4
20260901150022 15 171 0.0 3.2 0.00 0.00 0.00 100 1013.2
20260901144521 15 174 0.0 4.8 0.00 0.00 0.00 100 1013.1
20260901143020 14 175 3.2 8.0 0.00 0.00 0.00 100 1013.3
20260901141519 14 182 1.6 6.4 0.00 0.00 0.00 100 1013.2
20260901140022 14 180 0.0 6.4 0.00 0.00 0.00 100 1013.1
20260901134518 13 176 0.0 3.2 0.00 0.00 0.00 100 1013.0
20260901133016 13 176 0.0 1.6 0.00 0.00 0.00 100 1013.1
20260901131523 13 176 0.0 1.6 0.00 0.00 0.00 100 1013.0
20260901130014 14 176 0.0 1.6 0.00 0.00 0.00 100 1013.0
20260901124514 14 176 0.0 3.2 0.00 0.00 0.00 100 1013.1
20260901123012 14 176 3.2 6.4 0.00 0.00 0.00 100 1013.2
20260901121511 14 191 3.2 6.4 0.00 0.00 0.00 100 1013.2
20260901120010 14 182 1.6 9.7 0.00 0.00 0.00 100 1013.2
20260901114510 14 180 3.2 9.7 0.00 0.00 0.00 100 1013.2
20260901113009 14 203 1.6 9.7 0.00 0.00 0.00 100 1013.2
20260901111507 14 207 1.6 6.4 0.00 0.00 0.00 99 1013.2
20260901110005 15 211 0.0 4.8 0.00 0.00 0.00 99 1013.1
20260901104504 15 211 1.6 6.4 0.00 0.00 0.00 99 1012.9
20260901103002 15 211 3.2 8.0 0.00 0.00 0.00 98 1012.9
20260901101502 15 219 1.6 6.4 0.00 0.00 0.00 97 1012.9
20260901100110 15 182 1.6 9.7 0.00 0.00 0.00 97 1012.9
20260901094603 15 178 1.6 9.7 0.00 0.00 0.00 96 1012.8
20260901093057 15 189 1.6 6.4 0.00 0.00 0.00 96 1012.8
20260901091557 15 185 1.6 11.3 0.00 0.00 0.00 96 1012.9
20260901084607 15 182 4.8 11.3 0.00 0.00 0.00 96 1013.0
20260901083052 15 190 3.2 14.5 0.00 0.00 0.00 96 1013.0
20260901081550 15 199 3.2 11.3 0.00 0.00 0.00 96 1013.0
20260901080051 15 210 6.4 14.5 0.00 0.00 0.00 96 1013.1
20260901074547 15 209 3.2 11.3 0.00 0.00 0.00 97 1013.0
20260901073045 15 209 4.8 9.7 0.00 0.00 0.00 97 1012.8
20260901071545 15 212 3.2 9.7 0.00 0.00 0.00 97 1012.7
20260901070042 15 206 1.6 6.4 0.00 0.00 0.00 97 1012.6
20260901064541 15 203 3.2 12.9 0.00 0.00 0.00 97 1012.8
20260901063040 15 203 1.6 6.4 0.00 0.00 0.00 98 1012.7
20260901061548 15 211 1.6 4.8 0.00 0.00 0.00 98 1012.8